カタログに戻る

QIANFAN-38

運用中通信PO
NORAD 62239·PAYLOAD·🇨🇳 China

打ち上げ Dec 5, 2024 から Taiyuan Satellite Launch Center

Loading…

次のパス (今後24時間)

TLE

最新Source: Space-Track

元期: Sep 14, 2026, 21:38 UTC

1 62239U 24232C   26257.90173609  .00000108  00000-0  14777-3 0  9990
2 62239  89.0159  13.5311 0016446 116.0330 244.2517 13.51027924136510

AllMySatでQIANFAN-38をリアルタイム追跡

Download on the App Store